FW4012 Weather Reports


Display with metric or nautical units.
time (UTC)temp
F
wind
direction
speed
MPH
gust
MPH
rain 1hr
in
rain 24hr
in
rain mn
in
humidity
%
barometer
mb
20260903115741 85 273 3.0 8.0 0.00 0.00 0.00 46 1018.8
20260903115245 86 282 5.0 8.0 0.00 0.00 0.00 50 1018.8
20260903114737 85 277 2.0 6.0 0.00 0.00 0.00 49 1018.8
20260903114256 85 349 3.0 5.0 0.00 0.00 0.00 47 1019.0
20260903113759 85 49 3.0 5.0 0.00 0.00 0.00 47 1018.9
20260903113238 85 331 1.0 4.0 0.00 0.00 0.00 47 1018.9
20260903112737 85 346 2.0 4.0 0.00 0.00 0.00 49 1019.0
20260903112246 85 120 2.0 4.0 0.00 0.00 0.00 47 1019.0
20260903111800 85 306 1.0 3.0 0.00 0.00 0.00 47 1019.0
20260903111237 85 271 2.0 3.0 0.00 0.00 0.00 45 1019.0
20260903110736 85 268 0.0 3.0 0.00 0.00 0.00 52 1019.1
20260903110229 84 261 1.0 3.0 0.00 0.00 0.00 49 1019.0
20260903105738 84 211 1.0 5.0 0.00 0.00 0.00 47 1019.1
20260903105249 85 227 2.0 7.0 0.00 0.00 0.00 48 1019.1
20260903104812 85 189 4.0 7.0 0.00 0.00 0.00 49 1019.3
20260903104239 84 248 3.0 4.0 0.00 0.00 0.00 48 1019.4
20260903103748 83 333 2.0 7.0 0.00 0.00 0.00 47 1019.4
20260903103239 83 266 4.0 7.0 0.00 0.00 0.00 47 1019.5
20260903102740 84 282 2.0 9.0 0.00 0.00 0.00 46 1019.7
20260903102249 84 316 5.0 9.0 0.00 0.00 0.00 48 1019.7
20260903101740 83 306 3.0 9.0 0.00 0.00 0.00 47 1019.8
20260903101226 83 346 3.0 8.0 0.00 0.00 0.00 48 1019.8
20260903100811 83 329 5.0 9.0 0.00 0.00 0.00 46 1019.9
20260903100246 83 248 2.0 5.0 0.00 0.00 0.00 50 1020.0
20260903095742 83 343 2.0 5.0 0.00 0.00 0.00 47 1020.0
20260903095235 84 333 3.0 6.0 0.00 0.00 0.00 50 1020.2
20260903094740 84 355 4.0 6.0 0.00 0.00 0.00 48 1020.2
20260903094242 82 269 2.0 5.0 0.00 0.00 0.00 49 1020.1
20260903093731 82 343 2.0 5.0 0.00 0.00 0.00 47 1019.9
20260903093240 81 10 0.0 4.0 0.00 0.00 0.00 50 1019.9
20260903092738 80 62 1.0 4.0 0.00 0.00 0.00 51 1019.8
20260903092235 81 89 2.0 5.0 0.00 0.00 0.00 53 1019.9
20260903091740 81 329 4.0 5.0 0.00 0.00 0.00 52 1019.9
20260903091239 80 325 1.0 3.0 0.00 0.00 0.00 54 1020.0
20260903090744 80 101 1.0 3.0 0.00 0.00 0.00 53 1020.1
20260903090225 80 63 2.0 3.0 0.00 0.00 0.00 56 1020.0
20260903085745 79 38 1.0 5.0 0.00 0.00 0.00 57 1020.0
20260903085245 79 34 3.0 5.0 0.00 0.00 0.00 57 1020.1
20260903084813 79 309 1.0 4.0 0.00 0.00 0.00 55 1019.9
20260903084243 79 40 2.0 4.0 0.00 0.00 0.00 57 1019.9
20260903083748 79 31 1.0 4.0 0.00 0.00 0.00 57 1019.8
20260903083238 79 53 1.0 4.0 0.00 0.00 0.00 56 1019.8
20260903082748 78 5 2.0 5.0 0.00 0.00 0.00 57 1019.8
20260903082252 78 56 1.0 5.0 0.00 0.00 0.00 57 1019.7
20260903081742 78 15 3.0 5.0 0.00 0.00 0.00 57 1019.8
20260903081249 78 32 3.0 8.0 0.00 0.00 0.00 57 1019.8
20260903080741 77 355 3.0 6.0 0.00 0.00 0.00 58 1019.8
20260903080240 77 26 4.0 7.0 0.00 0.00 0.00 58 1019.9
20260903075741 77 110 1.0 6.0 0.00 0.00 0.00 59 1019.7
20260903075225 77 346 3.0 6.0 0.00 0.00 0.00 60 1019.6
20260903074741 76 50 3.0 6.0 0.00 0.00 0.00 59 1019.6
20260903074234 76 360 3.0 7.0 0.00 0.00 0.00 61 1019.6
20260903073743 75 19 4.0 6.0 0.00 0.00 0.00 63 1019.5
20260903073255 75 320 2.0 5.0 0.00 0.00 0.00 63 1019.5
20260903072735 74 330 2.0 8.0 0.00 0.00 0.00 63 1019.5
20260903072235 74 324 5.0 8.0 0.00 0.00 0.00 63 1019.4
20260903071738 74 320 4.0 6.0 0.00 0.00 0.00 63 1019.6
20260903071238 73 324 4.0 6.0 0.00 0.00 0.00 64 1019.6
20260903070748 73 335 3.0 6.0 0.00 0.00 0.00 66 1019.5
20260903070300 72 343 4.0 6.0 0.00 0.00 0.00 67 1019.5
20260903065747 72 337 2.0 4.0 0.00 0.00 0.00 69 1019.4
20260903065229 71 323 1.0 4.0 0.00 0.00 0.00 71 1019.4
20260903064730 70 332 3.0 4.0 0.00 0.00 0.00 76 1019.5
20260903064228 70 336 0.0 3.0 0.00 0.00 0.00 79 1019.6
20260903063749 70 336 0.0 1.0 0.00 0.00 0.00 80 1019.5
20260903063226 69 336 0.0 4.0 0.00 0.00 0.00 78 1019.5
20260903062802 69 336 2.0 5.0 0.00 0.00 0.00 78 1019.4
20260903062251 68 324 3.0 5.0 0.00 0.00 0.00 79 1019.4
20260903061741 68 329 3.0 5.0 0.00 0.00 0.00 81 1019.5
20260903061249 67 325 0.0 4.0 0.00 0.00 0.00 82 1019.5
20260903060735 66 327 0.0 0.0 0.00 0.00 0.00 83 1019.4
20260903060225 65 327 0.0 0.0 0.00 0.00 0.00 84 1019.3
20260903055751 64 327 0.0 0.0 0.00 0.00 0.00 85 1019.2
20260903055258 64 327 0.0 0.0 0.00 0.00 0.00 85 1019.2
20260903054726 63 340 0.0 0.0 0.00 0.00 0.00 86 1019.2
20260903054233 63 339 0.0 0.0 0.00 0.00 0.00 86 1019.1
20260903053742 62 331 0.0 0.0 0.00 0.00 0.00 87 1019.1
20260903053240 61 331 0.0 0.0 0.00 0.00 0.00 87 1019.0
20260903052730 61 331 0.0 0.0 0.00 0.00 0.00 87 1019.0
20260903052253 61 331 0.0 0.0 0.00 0.00 0.00 87 1019.0
20260903051724 61 331 0.0 0.0 0.00 0.00 0.00 87 1019.0
20260903051246 61 331 0.0 0.0 0.00 0.00 0.00 87 1019.0
20260903050743 61 331 0.0 0.0 0.00 0.00 0.00 87 1018.9
20260903050307 61 331 0.0 0.0 0.00 0.00 0.00 87 1018.9
20260903045732 61 331 0.0 0.0 0.00 0.00 0.00 86 1018.9
20260903045225 61 331 0.0 0.0 0.00 0.00 0.00 86 1018.8
20260903044724 61 331 0.0 0.0 0.00 0.00 0.00 86 1018.7
20260903044238 62 330 0.0 0.0 0.00 0.00 0.00 86 1018.7
20260903043748 62 330 0.0 0.0 0.00 0.00 0.00 85 1018.6
20260903043238 62 330 0.0 0.0 0.00 0.00 0.00 85 1018.6
20260903042744 62 330 0.0 0.0 0.00 0.00 0.00 85 1018.5
20260903042228 62 330 0.0 0.0 0.00 0.00 0.00 85 1018.4
20260903041757 62 330 0.0 0.0 0.00 0.00 0.00 85 1018.6
20260903041230 63 330 0.0 0.0 0.00 0.00 0.00 84 1018.4
20260903040743 63 344 0.0 0.0 0.00 0.00 0.00 84 1018.4
20260903040303 63 344 0.0 2.0 0.00 0.00 0.00 84 1018.4
20260903035742 63 344 0.0 2.0 0.00 0.00 0.00 83 1018.3
20260903035224 63 300 0.0 1.0 0.00 0.00 0.00 83 1018.3
20260903034725 64 300 0.0 0.0 0.00 0.00 0.00 83 1018.3
20260903034238 64 300 0.0 0.0 0.00 0.00 0.00 82 1018.3
20260903033745 64 300 0.0 3.0 0.00 0.00 0.00 82 1018.3
20260903033308 64 300 1.0 3.0 0.00 0.00 0.00 81 1018.4
20260903032733 65 298 0.0 2.0 0.00 0.00 0.00 80 1018.3
20260903032225 66 298 0.0 3.0 0.00 0.00 0.00 79 1018.1
20260903031746 66 298 1.0 3.0 0.00 0.00 0.00 78 1018.2
20260903031224 67 308 0.0 3.0 0.00 0.00 0.00 77 1018.1
20260903030731 68 320 0.0 2.0 0.00 0.00 0.00 75 1018.1
20260903030223 69 320 0.0 4.0 0.00 0.00 0.00 74 1018.0
20260903025726 69 320 1.0 9.0 0.00 0.00 0.00 73 1017.9
20260903025234 69 334 4.0 9.0 0.00 0.00 0.00 71 1017.9
20260903024723 70 332 3.0 9.0 0.00 0.00 0.00 71 1018.0
20260903024251 70 344 5.0 13.0 0.00 0.00 0.00 71 1018.1
20260903023741 69 355 6.0 13.0 0.00 0.00 0.00 72 1018.1
20260903023241 68 355 5.0 11.0 0.00 0.00 0.00 76 1018.0
20260903022803 66 14 5.0 11.0 0.00 0.00 0.00 79 1018.1
20260903022226 64 5 6.0 10.0 0.00 0.00 0.00 84 1018.1
20260903021758 64 5 4.0 8.0 0.00 0.00 0.00 86 1018.1
20260903021242 63 329 3.0 12.0 0.00 0.00 0.00 87 1018.1
20260903020737 63 15 5.0 12.0 0.00 0.00 0.00 88 1018.1
20260903020246 63 338 3.0 4.0 0.00 0.00 0.00 88 1018.2
20260903015736 63 326 2.0 4.0 0.00 0.00 0.00 88 1018.1
20260903015234 63 288 2.0 3.0 0.00 0.00 0.00 88 1018.2
20260903014735 63 294 2.0 4.0 0.00 0.00 0.00 88 1018.1
20260903014253 63 325 3.0 4.0 0.00 0.00 0.00 88 1018.1
20260903013739 63 327 2.0 4.0 0.00 0.00 0.00 89 1018.1
20260903013238 63 321 2.0 5.0 0.00 0.00 0.00 89 1018.1
20260903012735 63 322 2.0 5.0 0.00 0.00 0.00 89 1018.0
20260903012226 63 330 2.0 4.0 0.00 0.00 0.00 89 1018.1
20260903011727 64 268 0.0 3.0 0.00 0.00 0.00 88 1018.1
20260903011303 64 268 2.0 3.0 0.00 0.00 0.00 88 1018.1
20260903010751 64 268 1.0 4.0 0.00 0.00 0.00 89 1018.1
20260903010238 64 286 2.0 4.0 0.00 0.00 0.00 89 1018.1
20260903005748 64 349 1.0 4.0 0.00 0.00 0.00 88 1018.1
20260903005258 64 338 1.0 4.0 0.00 0.00 0.00 88 1018.1
20260903004747 64 27 1.0 3.0 0.00 0.00 0.00 88 1018.1
20260903004231 64 327 1.0 2.0 0.00 0.00 0.00 88 1018.1
20260903003731 64 327 1.0 2.0 0.00 0.00 0.00 88 1018.2
20260903003231 64 327 0.0 0.0 0.00 0.00 0.00 88 1018.0
20260903002731 64 327 0.0 1.0 0.00 0.00 0.00 88 1018.1
20260903002311 64 327 0.0 1.0 0.00 0.00 0.00 88 1018.1
20260903001740 64 327 0.0 0.0 0.00 0.00 0.00 88 1018.1
20260903001238 64 327 0.0 1.0 0.00 0.00 0.00 88 1018.1
20260903000737 64 327 0.0 1.0 0.00 0.00 0.00 88 1018.2
20260903000248 64 327 0.0 1.0 0.00 0.00 0.00 87 1018.1
20260902235741 65 327 0.0 2.0 0.00 0.00 0.00 87 1018.0
20260902235235 65 327 1.0 2.0 0.00 0.00 0.00 87 1018.0
20260902234800 65 327 1.0 1.0 0.00 0.00 0.00 87 1018.0
20260902234249 65 327 0.0 0.0 0.00 0.00 0.00 87 1018.0
20260902233739 65 327 0.0 1.0 0.00 0.00 0.00 87 1018.1
20260902233248 65 327 0.0 1.0 0.00 0.00 0.00 87 1018.0
20260902232737 65 327 0.0 0.0 0.00 0.00 0.00 87 1018.0
20260902232226 65 327 0.0 1.0 0.00 0.00 0.00 87 1018.0
20260902231747 65 327 0.0 3.0 0.00 0.00 0.00 87 1017.9
20260902231226 66 327 1.0 3.0 0.00 0.00 0.00 87 1017.8
20260902230741 66 327 2.0 3.0 0.00 0.00 0.00 87 1017.9
20260902230246 66 327 2.0 3.0 0.00 0.00 0.00 87 1018.0
20260902225741 66 327 0.0 4.0 0.00 0.00 0.00 87 1017.9
20260902225231 66 327 3.0 4.0 0.00 0.00 0.00 87 1017.8
20260902224740 66 332 2.0 4.0 0.00 0.00 0.00 87 1017.9
20260902224234 66 321 2.0 4.0 0.00 0.00 0.00 87 1017.9
20260902223730 66 321 2.0 5.0 0.00 0.00 0.00 87 1017.8
20260902223242 66 328 3.0 5.0 0.00 0.00 0.00 87 1017.9
20260902222742 66 328 2.0 4.0 0.00 0.00 0.00 87 1017.9
20260902222225 66 355 1.0 3.0 0.00 0.00 0.00 87 1017.9
20260902221750 66 277 0.0 2.0 0.00 0.00 0.00 87 1017.9
20260902221241 66 269 1.0 2.0 0.00 0.00 0.00 87 1018.0
20260902220750 66 274 0.0 5.0 0.00 0.00 0.00 87 1017.8
20260902220243 66 263 1.0 5.0 0.00 0.00 0.00 87 1017.8
20260902215749 67 342 0.0 3.0 0.00 0.00 0.00 87 1017.8
20260902215226 67 318 0.0 2.0 0.00 0.00 0.00 87 1017.7
20260902214759 67 318 0.0 4.0 0.00 0.00 0.00 87 1017.7
20260902214252 67 318 1.0 4.0 0.00 0.00 0.00 87 1017.7
20260902213743 67 304 2.0 3.0 0.00 0.00 0.00 87 1017.7
20260902213250 67 304 0.0 0.0 0.00 0.00 0.00 87 1017.7
20260902212739 67 304 0.0 0.0 0.00 0.00 0.00 86 1017.6
20260902212240 67 304 0.0 0.0 0.00 0.00 0.00 86 1017.6
20260902211726 67 304 0.0 1.0 0.00 0.00 0.00 87 1017.6
20260902211238 67 304 0.0 3.0 0.00 0.00 0.00 86 1017.6
20260902210737 68 304 1.0 3.0 0.00 0.00 0.00 86 1017.5
20260902210236 68 292 1.0 2.0 0.00 0.00 0.00 86 1017.5
20260902205729 68 287 0.0 2.0 0.00 0.00 0.00 86 1017.5
20260902205235 68 287 0.0 2.0 0.00 0.00 0.00 86 1017.5
20260902204726 68 287 1.0 3.0 0.00 0.00 0.00 86 1017.4
20260902204251 68 287 1.0 3.0 0.00 0.00 0.00 86 1017.5
20260902203740 68 286 1.0 2.0 0.00 0.00 0.00 85 1017.4
20260902203245 68 286 0.0 0.0 0.00 0.00 0.00 85 1017.4
20260902202734 68 286 0.0 1.0 0.00 0.00 0.00 85 1017.5
20260902202226 68 286 0.0 1.0 0.00 0.00 0.00 85 1017.4
20260902201745 68 286 0.0 0.0 0.00 0.00 0.00 84 1017.4
20260902201235 68 286 0.0 1.0 0.00 0.00 0.00 84 1017.4
20260902200729 69 286 0.0 1.0 0.00 0.00 0.00 84 1017.3
20260902200240 69 286 0.0 1.0 0.00 0.00 0.00 84 1017.3
20260902195740 69 286 0.0 2.0 0.00 0.00 0.00 84 1017.4
20260902195248 69 286 1.0 2.0 0.00 0.00 0.00 84 1017.3
20260902194742 69 284 0.0 0.0 0.00 0.00 0.00 83 1017.3
20260902194237 70 284 0.0 0.0 0.00 0.00 0.00 83 1017.2
20260902193728 70 284 0.0 0.0 0.00 0.00 0.00 83 1017.1
20260902193237 70 284 0.0 0.0 0.00 0.00 0.00 83 1017.2
20260902192731 70 284 0.0 0.0 0.00 0.00 0.00 82 1017.2
20260902192224 70 284 0.0 0.0 0.00 0.00 0.00 82 1017.1
20260902191727 71 284 0.0 0.0 0.00 0.00 0.00 82 1017.0
20260902191301 71 284 0.0 0.0 0.00 0.00 0.00 81 1017.1
20260902190749 71 284 0.0 0.0 0.00 0.00 0.00 81 1016.9
20260902190239 72 284 0.0 0.0 0.00 0.00 0.00 80 1016.9
20260902185737 72 284 0.0 0.0 0.00 0.00 0.00 80 1016.9
20260902185252 72 284 0.0 0.0 0.00 0.00 0.00 80 1016.8
20260902184802 72 284 0.0 0.0 0.00 0.00 0.00 79 1016.7
20260902184252 73 284 0.0 0.0 0.00 0.00 0.00 78 1016.7
20260902183737 73 284 0.0 0.0 0.00 0.00 0.00 78 1016.7
20260902183237 74 284 0.0 0.0 0.00 0.00 0.00 76 1016.7
20260902182731 75 284 0.0 0.0 0.00 0.00 0.00 76 1016.6
20260902182230 75 284 0.0 0.0 0.00 0.00 0.00 74 1016.7
20260902181735 76 284 0.0 0.0 0.00 0.00 0.00 74 1016.6
20260902181234 76 284 0.0 0.0 0.00 0.00 0.00 73 1016.6
20260902180748 77 284 0.0 0.0 0.00 0.00 0.00 72 1016.5
20260902180238 77 284 0.0 1.0 0.00 0.00 0.00 69 1016.4
20260902175733 78 284 0.0 1.0 0.00 0.00 0.00 67 1016.4
20260902175224 78 284 0.0 1.0 0.00 0.00 0.00 66 1016.4
20260902174752 79 284 0.0 2.0 0.00 0.00 0.00 65 1016.4
20260902174241 80 284 1.0 2.0 0.00 0.00 0.00 65 1016.4
20260902173749 80 284 2.0 2.0 0.00 0.00 0.00 64 1016.3
20260902173234 82 284 2.0 2.0 0.00 0.00 0.00 62 1016.3
20260902172726 83 284 2.0 2.0 0.00 0.00 0.00 60 1016.3
20260902172248 84 284 1.0 2.0 0.00 0.00 0.00 58 1016.3
20260902171754 85 284 0.0 3.0 0.00 0.00 0.00 56 1016.3
20260902171225 85 284 1.0 3.0 0.00 0.00 0.00 55 1016.3
20260902170749 86 284 2.0 3.0 0.00 0.00 0.00 55 1016.3
20260902170226 86 284 2.0 3.0 0.00 0.00 0.00 55 1016.3
20260902165738 86 247 2.0 3.0 0.00 0.00 0.00 52 1016.3
20260902165248 86 247 1.0 3.0 0.00 0.00 0.00 52 1016.3
20260902164739 86 321 1.0 4.0 0.00 0.00 0.00 52 1016.3
20260902164239 86 251 2.0 4.0 0.00 0.00 0.00 52 1016.3
20260902163738 86 298 3.0 4.0 0.00 0.00 0.00 53 1016.3
20260902163242 86 201 1.0 4.0 0.00 0.00 0.00 52 1016.3
20260902162732 85 237 2.0 4.0 0.00 0.00 0.00 52 1016.2
20260902162224 85 246 3.0 6.0 0.00 0.00 0.00 53 1016.3
20260902161750 85 238 3.0 6.0 0.00 0.00 0.00 55 1016.2
20260902161242 85 263 3.0 7.0 0.00 0.00 0.00 55 1016.2
20260902160739 85 248 3.0 6.0 0.00 0.00 0.00 54 1016.4
20260902160245 86 234 4.0 7.0 0.00 0.00 0.00 53 1016.3
20260902155805 86 252 3.0 5.0 0.00 0.00 0.00 53 1016.3
20260902155236 86 278 2.0 5.0 0.00 0.00 0.00 53 1016.3
20260902154725 86 229 3.0 7.0 0.00 0.00 0.00 52 1016.4
20260902154244 86 239 1.0 5.0 0.00 0.00 0.00 52 1016.4
20260902153741 86 236 3.0 5.0 0.00 0.00 0.00 52 1016.5
20260902153245 85 281 3.0 5.0 0.00 0.00 0.00 56 1016.6
20260902152725 84 230 2.0 4.0 0.00 0.00 0.00 55 1016.6
20260902152242 84 241 3.0 4.0 0.00 0.00 0.00 54 1016.6
20260902151804 84 241 3.0 5.0 0.00 0.00 0.00 53 1016.6
20260902151223 85 302 3.0 8.0 0.00 0.00 0.00 53 1016.6
20260902150803 86 247 5.0 8.0 0.00 0.00 0.00 52 1016.6
20260902150224 86 215 2.0 5.0 0.00 0.00 0.00 52 1016.7
20260902145739 86 266 3.0 5.0 0.00 0.00 0.00 53 1016.8
20260902145224 85 250 2.0 4.0 0.00 0.00 0.00 54 1016.8
20260902144749 85 200 2.0 5.0 0.00 0.00 0.00 54 1016.9
20260902144243 85 217 3.0 9.0 0.00 0.00 0.00 53 1016.9
20260902143746 85 230 3.0 7.0 0.00 0.00 0.00 54 1016.9
20260902143231 85 250 2.0 8.0 0.00 0.00 0.00 52 1016.9
20260902142729 86 184 4.0 8.0 0.00 0.00 0.00 53 1016.9
20260902142244 86 232 4.0 7.0 0.00 0.00 0.00 52 1016.8
20260902141728 85 171 1.0 4.0 0.00 0.00 0.00 52 1016.9
20260902141239 86 219 1.0 7.0 0.00 0.00 0.00 54 1017.0
20260902140749 86 240 5.0 7.0 0.00 0.00 0.00 52 1017.0
20260902140227 86 163 0.0 7.0 0.00 0.00 0.00 52 1017.0
20260902135800 86 156 4.0 7.0 0.00 0.00 0.00 52 1017.2
20260902135245 86 175 5.0 7.0 0.00 0.00 0.00 52 1017.1
20260902134737 86 209 4.0 9.0 0.00 0.00 0.00 58 1017.1
20260902134224 85 140 5.0 10.0 0.00 0.00 0.00 54 1017.1
20260902133810 85 240 5.0 10.0 0.00 0.00 0.00 55 1017.2
20260902133224 84 234 2.0 10.0 0.00 0.00 0.00 57 1017.1
20260902132741 85 228 4.0 10.0 0.00 0.00 0.00 54 1017.2
20260902132242 85 245 3.0 5.0 0.00 0.00 0.00 55 1017.2
20260902131724 85 215 2.0 5.0 0.00 0.00 0.00 57 1017.3
20260902131237 84 277 3.0 7.0 0.00 0.00 0.00 56 1017.4
20260902130733 85 244 4.0 7.0 0.00 0.00 0.00 58 1017.4
20260902130238 85 184 4.0 8.0 0.00 0.00 0.00 56 1017.5
20260902125736 84 213 5.0 8.0 0.00 0.00 0.00 55 1017.7
20260902125224 85 253 2.0 9.0 0.00 0.00 0.00 56 1017.7
20260902124811 84 272 2.0 9.0 0.00 0.00 0.00 55 1017.7
20260902124237 84 257 3.0 7.0 0.00 0.00 0.00 59 1017.8
20260902123737 83 146 1.0 4.0 0.00 0.00 0.00 62 1017.7
20260902123231 83 119 2.0 5.0 0.00 0.00 0.00 61 1017.8
20260902122737 83 150 2.0 5.0 0.00 0.00 0.00 60 1017.9
20260902122243 84 216 2.0 5.0 0.00 0.00 0.00 59 1017.9
20260902121753 84 183 2.0 8.0 0.00 0.00 0.00 62 1017.9
20260902121237 84 126 6.0 9.0 0.00 0.00 0.00 59 1018.0
20260902120733 84 121 5.0 11.0 0.00 0.00 0.00 58 1018.1
20260902120228 84 132 5.0 11.0 0.00 0.00 0.00 61 1018.1